Theta_e
286 286 286 286 286 287 287 287 288 288 289 289 289 290 290 290 291 291 292 294 296 297 297 298 299 297 296 295 295 295 295 295 294 295 294 294 294 294 295 295 295 296 298 299 300 302 303 303 304 304 306 305 304 303 303 302 302 302 301 299 299 297 295 292 292 293 292 293 291 289 288 287 289 289 288 288 288 288 287 288 288 289 289 289 291
285 285 285 285 285 286 286 286 287 286 287 287 287 288 289 289 289 290 291 292 293 294 294 294 294 294 294 293 293 293 292 291 291 291 292 292 292 292 292 293 293 293 294 296 296 298 299 301 301 301 302 303 303 303 302 300 300 298 297 296 295 296 296 292 293 294 292 290 290 289 288 289 286 287 287 288 288 287 287 288 288 288 289 289 287
284 284 284 284 284 284 285 285 285 285 285 286 286 287 288 288 288 289 289 290 291 292 293 293 293 293 292 291 291 290 291 290 290 290 290 289 289 290 290 290 291 291 292 293 293 294 295 296 296 298 298 299 300 300 300 300 300 299 299 299 298 295 293 293 293 294 293 289 289 289 288 286 290 286 285 286 288 288 287 287 288 287 288 288 286
283 283 283 283 283 283 284 284 284 285 285 285 285 286 287 287 287 288 288 289 289 290 292 291 292 292 291 291 290 290 289 289 289 288 288 287 286 287 287 287 288 288 289 290 290 290 291 292 293 294 295 296 297 297 296 296 297 297 298 297 297 296 295 294 293 293 292 294 292 289 286 285 289 289 282 285 283 285 286 287 286 288 288 287 286
282 282 282 282 282 282 283 283 284 284 284 284 284 285 286 286 286 287 287 288 288 289 289 290 290 290 290 289 289 287 287 286 286 285 285 286 285 285 285 286 286 286 287 287 288 288 288 289 290 290 291 292 293 294 294 294 295 295 295 294 293 293 293 294 293 293 292 294 294 289 289 288 287 286 286 292 284 287 285 285 287 287 287 287 286
282 281 281 282 282 282 282 282 283 283 283 283 284 284 284 285 286 286 287 287 287 287 288 288 288 287 287 286 284 283 282 283 282 282 282 283 283 284 284 285 285 285 285 285 286 287 287 287 288 288 288 289 290 290 290 291 292 293 294 294 294 293 291 290 291 293 292 293 292 291 292 290 287 288 288 287 286 285 285 284 284 285 285 286 287
282 281 281 281 281 281 282 282 282 282 282 283 283 283 284 284 285 285 285 286 286 286 287 287 286 285 285 284 283 282 281 282 282 282 282 282 283 283 283 284 284 284 284 284 284 285 285 285 286 286 287 287 288 288 288 289 289 290 291 292 292 293 292 289 290 291 292 292 293 292 291 289 288 287 286 286 285 287 283 283 287 284 284 285 286
281 281 281 281 281 281 281 281 281 282 281 282 283 283 283 283 283 284 284 285 285 285 285 286 284 284 283 283 283 282 281 281 281 282 282 283 282 282 282 283 283 283 283 284 284 284 284 284 284 284 285 285 286 286 287 288 288 289 290 290 290 291 291 290 290 291 289 290 291 290 290 290 289 288 288 286 285 283 286 286 285 285 284 285 286
281 280 281 281 281 281 281 281 281 281 282 282 282 282 282 282 283 283 283 283 283 284 284 284 284 283 282 282 282 282 282 282 282 283 282 282 282 282 282 282 282 283 283 283 283 283 284 283 283 283 283 284 284 284 285 286 287 287 288 288 288 289 289 289 289 289 290 290 289 289 290 289 289 288 287 287 285 284 285 287 287 285 284 284 285
281 281 281 281 281 280 280 280 280 280 281 282 281 281 281 282 282 282 281 282 282 282 283 282 282 283 282 281 281 280 281 281 281 281 281 281 281 281 281 281 282 282 282 282 282 283 283 283 283 282 282 283 284 283 284 284 285 286 287 287 288 287 288 288 288 288 289 289 289 289 288 287 287 287 287 286 285 285 284 285 286 286 285 287 286
281 280 280 280 280 280 280 279 279 280 280 280 281 281 280 281 281 281 281 281 282 282 282 282 282 282 281 281 281 280 280 281 281 280 281 281 280 280 280 281 281 281 281 282 282 282 282 282 282 282 282 283 282 282 282 283 284 284 285 286 286 287 287 287 287 287 287 287 287 287 287 288 287 286 286 286 286 285 285 285 286 287 287 286 287
280 280 280 280 279 279 279 279 279 279 280 280 280 280 281 281 281 281 280 281 281 281 282 281 282 282 281 281 281 280 280 280 280 279 280 279 280 280 280 281 281 281 281 281 281 281 282 281 281 281 281 281 281 281 282 282 282 283 283 284 284 285 286 286 286 286 286 286 286 286 286 287 287 287 287 288 287 286 286 285 285 286 287 287 288
280 279 280 280 279 279 279 279 279 279 279 279 280 280 280 281 281 281 280 280 280 280 281 281 281 281 281 281 281 281 280 280 280 279 279 280 280 280 280 280 280 281 281 281 281 281 282 281 281 281 281 281 281 281 281 281 282 281 282 282 282 283 284 284 284 285 285 285 286 287 287 286 286 287 287 286 286 286 285 284 285 285 284 285 286
280 279 279 279 279 279 279 279 279 279 279 279 280 280 280 280 280 281 280 280 280 280 280 280 280 280 280 281 281 281 280 280 280 280 280 281 281 280 280 280 280 281 281 281 282 282 282 282 282 281 282 281 281 281 281 280 281 280 281 280 280 282 282 282 282 283 283 284 285 284 285 286 286 287 286 286 285 284 283 282 282 283 283 284 286
279 279 279 280 279 279 279 279 278 278 279 279 279 279 279 280 280 280 280 280 279 279 280 280 280 280 280 281 281 281 280 280 281 281 280 280 280 280 280 281 280 280 281 281 281 281 281 281 281 281 281 281 281 281 281 280 280 280 280 279 279 280 280 280 280 281 282 282 282 283 284 284 285 286 285 286 286 285 284 283 282 281 282 283 284
279 279 280 279 279 279 279 279 279 279 279 279 279 279 279 279 279 279 280 279 280 280 279 279 279 280 279 279 280 280 281 280 280 280 279 279 279 279 279 279 279 279 280 280 280 280 280 280 280 280 280 280 280 280 279 279 279 279 279 279 278 280 279 278 279 279 279 280 281 282 282 282 284 284 285 285 285 285 284 283 282 280 279 279 283
279 280 280 279 279 279 279 278 279 279 279 279 279 279 279 279 279 279 279 279 279 279 279 279 279 279 278 278 278 278 279 279 279 278 278 279 279 278 278 278 278 279 279 279 279 278 278 279 279 279 279 279 279 279 279 278 278 278 278 278 278 279 279 278 278 278 278 278 279 280 280 281 282 283 283 284 284 284 284 284 283 282 282 280 279
280 279 279 279 279 279 279 279 279 279 279 279 280 279 279 279 279 279 279 279 279 279 279 279 279 278 278 278 278 278 278 278 278 278 278 278 278 278 277 278 277 278 278 279 277 277 277 278 277 277 278 278 277 278 277 278 277 277 277 277 277 278 278 278 278 278 278 278 278 278 278 279 280 281 282 283 283 284 283 283 283 283 282 280 280
279 279 280 280 280 280 280 280 280 279 280 279 279 279 279 279 279 279 279 279 279 279 279 279 279 280 280 278 278 278 278 278 277 277 277 277 277 277 277 277 277 277 277 277 277 277 277 277 277 277 277 276 276 276 276 276 276 276 276 276 276 276 276 276 277 278 278 278 278 277 278 278 278 279 280 281 281 282 282 283 283 283 282 282 281
280 280 280 280 280 280 280 280 280 280 280 281 281 281 280 280 280 279 278 278 277 278 278 278 278 279 278 278 277 277 278 277 277 277 277 277 276 276 276 276 277 277 276 276 276 276 276 276 276 276 276 276 276 276 276 275 275 275 275 275 276 275 275 275 276 276 278 278 277 277 277 277 278 278 278 279 279 281 282 282 282 282 282 282 282
280 280 280 280 280 280 280 280 281 280 280 280 279 279 280 279 278 278 278 278 278 278 278 278 278 277 277 277 277 277 276 277 276 276 276 276 276 277 276 276 276 276 276 276 276 276 276 276 275 276 275 275 275 275 275 275 275 275 275 275 275 275 275 275 275 275 275 276 276 276 277 277 278 277 278 278 278 279 280 280 281 281 281 281 280
281 280 280 280 280 280 280 280 279 280 280 280 280 280 280 280 280 280 280 279 278 278 278 277 277 277 276 276 276 276 276 276 276 276 275 275 275 275 275 275 275 275 275 275 275 275 275 275 275 275 275 274 274 274 274 275 274 274 274 276 275 275 274 274 275 274 275 275 275 275 275 276 277 277 277 277 278 278 278 278 279 279 279 280 281
281 280 280 280 280 280 280 280 281 281 282 282 282 283 283 281 280 279 278 277 277 278 277 277 277 277 276 275 276 275 275 275 275 275 274 274 274 274 275 274 274 274 274 274 274 274 274 274 273 274 273 273 274 273 274 274 274 274 274 274 275 275 274 274 274 274 274 275 274 274 274 275 276 276 276 276 277 277 278 277 278 278 278 279 280
280 279 279 280 280 280 281 281 282 283 283 283 283 282 281 279 278 277 277 277 277 277 277 277 276 275 275 275 275 274 274 274 274 274 273 274 274 274 274 274 274 273 273 273 273 273 273 272 272 272 272 272 273 273 273 273 274 274 274 274 274 274 274 274 274 274 274 275 274 274 274 275 275 275 275 275 276 276 276 277 277 277 278 278 279
280 280 280 280 280 281 282 283 283 283 282 281 280 279 279 279 278 278 278 277 277 277 277 276 275 275 275 275 274 274 274 274 273 273 273 273 273 273 273 273 272 272 272 272 272 271 271 271 271 271 272 272 272 272 272 272 273 273 273 273 274 274 274 274 274 274 276 275 275 274 275 275 275 275 275 275 275 275 276 276 276 277 277 278 278
281 281 281 281 282 282 282 281 281 280 280 280 280 279 279 279 279 277 277 277 277 276 275 275 275 275 275 274 274 273 274 273 273 273 273 273 273 272 272 272 271 270 271 271 270 270 271 270 271 271 271 271 271 271 271 271 271 272 272 272 272 273 273 274 274 274 275 275 275 275 275 275 275 275 275 275 275 275 276 276 276 276 277 277 277
282 281 280 280 280 280 280 280 280 280 280 280 280 280 279 278 278 278 277 277 276 276 275 275 274 274 274 274 273 273 273 273 273 273 272 272 271 271 270 270 270 269 269 269 269 269 270 270 270 270 270 269 269 270 270 270 270 271 271 271 272 272 272 273 273 273 274 274 274 274 274 275 274 275 274 274 275 275 275 275 276 276 277 277 277
280 280 279 280 280 280 279 280 279 280 280 280 280 280 279 279 278 277 276 276 277 276 275 275 274 274 273 273 273 273 272 272 272 271 271 270 270 269 269 269 268 268 268 268 268 268 268 268 269 268 268 268 268 268 269 269 269 270 271 271 271 271 271 271 272 272 272 272 273 273 273 274 274 274 275 275 275 275 276 276 278 278 278 278 278
280 280 280 280 280 279 279 279 279 279 279 279 279 277 276 276 276 276 275 276 276 275 274 274 273 273 273 273 273 272 272 271 271 270 269 269 268 268 267 267 267 267 267 267 267 267 266 266 266 266 266 267 267 267 268 268 269 270 271 271 271 271 271 271 271 271 272 272 272 273 273 273 274 276 277 278 278 278 276 276 277 277 277 277 276
280 280 280 280 280 280 280 279 278 279 279 278 277 277 277 277 276 275 275 274 275 274 274 273 273 272 272 272 271 271 270 270 269 268 267 266 266 266 266 265 265 265 265 266 265 265 265 265 265 265 265 265 266 266 268 271 273 272 272 271 271 271 271 271 271 270 271 271 272 272 273 275 275 275 276 277 277 278 278 277 276 276 276 276 276
281 280 280 280 280 280 279 278 279 278 279 278 278 277 276 276 275 274 274 274 274 273 272 272 272 271 271 270 269 268 268 267 267 266 264 264 265 263 262 263 262 263 263 264 264 264 264 264 264 264 264 264 265 265 269 272 274 274 273 272 271 271 271 271 270 270 270 270 271 271 271 272 273 273 273 275 276 277 277 278 278 279 278 276 275
281 281 280 279 279 279 278 279 279 278 278 278 277 276 276 276 274 274 274 273 272 272 271 270 270 270 269 268 268 267 266 265 265 264 263 262 262 261 261 261 261 262 263 262 263 263 263 263 263 263 263 263 264 267 270 272 273 274 274 272 272 271 271 270 270 270 270 270 269 269 269 270 269 270 270 270 271 273 274 275 276 277 277 278 279
281 281 280 280 279 279 279 279 278 278 278 278 277 276 276 275 274 274 272 271 271 270 270 269 269 268 267 267 266 264 263 262 262 262 261 260 260 261 260 260 260 260 261 261 262 262 262 263 263 262 262 263 263 266 270 272 273 274 274 274 271 271 270 270 269 269 268 268 268 268 268 268 269 271 270 269 269 269 272 274 274 275 275 276 276
281 280 280 279 279 279 279 279 279 279 278 277 277 277 276 275 274 272 271 270 270 269 268 268 267 266 266 266 264 262 262 262 261 261 261 260 259 259 259 260 260 261 261 261 260 261 261 261 262 261 261 262 262 265 270 272 272 273 274 274 271 270 269 268 268 268 267 267 267 267 267 267 268 269 269 269 269 269 270 270 271 271 271 273 275
280 278 278 278 279 278 278 277 277 277 276 276 275 275 274 272 272 270 269 269 268 268 267 267 265 265 264 263 264 262 261 261 261 260 259 259 259 259 260 260 259 261 260 260 260 259 260 260 260 260 261 261 261 267 270 271 272 273 274 274 270 269 268 267 268 268 268 268 268 268 268 267 268 268 269 270 269 270 270 269 269 270 270 271 271
279 279 278 278 278 278 278 278 277 276 275 276 275 273 272 271 269 269 268 267 266 266 266 265 264 264 263 264 262 261 261 260 261 259 258 260 259 258 259 259 259 259 258 259 259 259 259 259 260 259 259 260 261 267 269 270 272 273 274 270 269 268 267 267 267 267 268 268 268 268 268 268 268 268 270 273 273 271 270 270 269 270 270 271 271
280 279 279 279 279 279 278 277 275 276 275 275 273 272 271 269 268 266 266 265 265 264 265 265 263 263 263 262 263 261 260 259 259 259 257 258 259 258 258 258 258 259 259 258 258 258 259 259 259 259 259 259 259 264 268 270 271 273 271 269 268 268 267 267 267 268 268 268 268 268 268 268 268 268 271 274 275 275 271 270 270 270 271 271 271
278 277 277 277 276 276 275 276 275 274 273 272 271 270 269 268 267 265 265 265 264 265 264 263 263 262 263 262 262 259 260 258 258 257 257 259 258 257 257 257 258 258 258 257 258 258 258 258 258 258 258 258 259 263 268 269 270 271 271 269 268 267 267 267 267 268 268 268 269 271 271 269 269 269 273 275 276 275 272 272 271 271 270 270 271
276 277 277 276 276 275 275 273 273 272 271 270 269 268 268 267 266 265 265 264 264 264 264 263 263 262 262 260 260 259 259 258 257 258 257 257 256 256 257 256 257 256 257 257 257 257 257 257 258 258 261 261 259 261 266 268 270 271 270 269 269 268 267 267 267 267 268 268 269 270 272 272 272 273 276 277 277 275 273 272 272 271 270 270 271
274 274 275 275 274 272 272 272 272 272 269 267 267 268 267 267 265 264 264 264 265 264 264 263 263 262 261 259 259 259 259 257 258 257 256 256 256 256 256 256 256 256 256 256 257 257 256 257 257 258 258 259 259 259 261 268 270 271 272 270 269 268 267 267 267 267 267 268 269 269 270 274 275 276 277 277 277 277 274 273 272 271 271 270 273
275 275 277 274 274 275 275 274 274 271 267 267 267 267 267 265 264 264 264 265 264 263 262 262 262 260 258 258 258 257 256 256 256 255 256 255 255 257 256 255 256 256 255 256 256 256 256 257 257 258 258 259 259 259 261 268 270 271 273 272 269 269 268 268 268 268 268 268 268 269 270 273 276 276 277 277 277 277 277 274 273 272 272 273 276
274 275 274 273 273 272 271 270 269 268 267 266 267 268 267 264 264 265 265 264 263 262 262 260 259 259 258 257 256 255 256 255 254 254 254 255 254 254 255 255 255 255 255 255 255 256 256 256 257 258 258 258 260 262 261 266 270 271 273 274 271 270 271 271 270 270 270 270 270 271 271 273 276 277 277 277 278 278 279 275 275 277 278 278 275
273 273 273 273 272 272 272 272 268 267 266 266 266 267 265 264 265 266 264 262 262 261 261 260 258 257 256 255 254 254 254 254 254 254 254 254 254 253 253 254 254 254 254 254 254 255 255 256 256 257 258 259 259 260 265 265 269 272 273 274 274 274 275 273 271 270 270 270 271 271 272 275 276 277 277 278 278 279 277 275 278 278 278 278 277
273 273 273 272 273 273 272 269 267 266 266 266 266 267 265 264 266 264 262 261 261 260 259 258 256 255 254 254 253 253 253 252 252 253 252 253 253 253 253 252 254 254 254 254 255 255 255 255 255 256 258 259 260 261 264 269 269 272 274 275 275 275 276 273 272 272 272 272 272 271 272 276 276 277 277 277 278 277 276 277 278 278 277 277 274
275 274 273 272 274 272 271 268 266 265 265 265 265 267 264 264 264 262 262 260 259 258 257 255 254 253 252 252 251 251 251 250 252 252 252 253 253 251 253 253 253 254 254 254 254 254 254 255 256 257 259 260 262 264 265 268 271 272 274 274 275 275 276 276 273 272 272 272 274 277 277 277 277 278 278 277 276 276 276 277 277 277 277 274 272
271 271 271 271 270 268 268 267 265 264 264 263 263 265 265 264 261 261 261 259 257 256 255 254 252 251 252 251 251 252 251 252 252 252 253 253 253 253 253 254 254 254 253 253 254 254 254 256 257 259 261 263 264 265 266 267 269 270 271 273 274 275 275 275 275 273 275 276 277 277 277 277 276 275 273 272 272 273 276 277 276 275 271 269 269
272 274 271 269 269 269 268 267 266 263 263 262 261 261 262 260 260 260 260 257 256 256 256 254 254 253 251 250 251 252 252 252 251 252 252 253 253 252 253 254 254 253 253 253 254 255 256 257 259 261 262 264 265 266 267 267 268 268 269 270 272 272 274 275 273 272 273 273 273 274 273 275 274 275 274 274 273 273 270 269 268 268 268 268 268
273 272 269 268 269 270 269 267 267 265 263 262 261 261 259 259 259 260 257 256 256 256 256 254 252 250 252 251 252 255 255 253 253 252 252 253 252 253 253 253 254 254 254 254 254 256 258 260 261 262 262 264 266 267 267 267 268 269 271 272 272 272 271 271 271 271 271 272 271 272 271 269 269 269 268 268 268 267 268 268 268 268 268 269 270
271 269 268 270 270 269 270 268 269 266 263 262 262 261 259 259 260 257 256 256 256 255 253 252 251 250 251 253 253 252 252 253 252 252 252 253 253 253 254 255 257 257 257 257 257 258 260 261 262 263 265 266 266 266 267 271 271 274 272 272 271 270 271 270 271 273 270 269 268 268 268 267 266 265 265 265 266 267 267 268 267 267 268 268 269
270 269 268 269 268 269 269 268 267 264 263 263 262 261 259 261 259 257 256 256 256 255 253 254 253 252 250 251 252 251 251 252 251 252 252 253 258 262 261 259 259 264 267 269 268 264 265 268 268 268 268 266 266 268 272 274 274 274 275 274 273 273 273 270 271 272 268 264 263 262 263 263 263 263 263 263 264 264 265 265 265 267 266 266 268
269 268 266 267 268 267 267 266 266 264 263 263 262 260 259 259 258 257 257 256 256 256 256 256 254 254 253 253 252 252 252 252 252 252 252 253 253 256 262 265 266 266 268 269 270 271 272 272 270 268 269 271 272 272 272 273 274 274 273 273 273 272 271 270 270 265 261 259 259 259 259 260 261 261 261 261 262 262 262 262 263 263 264 265 267
Wind_Speed
4 5 7 7 8 8 7 7 6 9 12 11 12 12 12 10 12 13 8 10 10 9 9 8 8 8 11 12 10 8 9 10 11 10 10 9 10 10 12 11 12 13 13 12 12 11 10 11 11 10 8 6 5 6 5 5 4 3 2 3 2 2 2 2 1 1 4 6 3 4 5 3 5 3 5 6 6 6 4 5 6 4 5 5 6
6 8 9 8 9 9 8 7 9 14 12 11 11 9 8 11 12 9 9 11 11 9 7 10 7 7 9 8 8 8 9 10 9 10 9 10 13 13 12 10 11 11 11 12 12 12 11 11 9 8 7 6 6 6 6 5 5 5 3 4 3 2 1 2 1 2 3 2 5 6 5 6 3 2 5 7 4 4 4 5 6 5 6 5 3
6 6 6 7 8 8 7 7 9 9 9 9 7 8 10 11 10 9 10 10 9 8 9 9 8 8 9 6 7 9 8 7 8 8 9 11 12 12 11 12 12 12 10 10 10 10 10 9 9 8 10 9 9 9 8 9 6 5 6 4 3 2 0 1 1 3 1 1 2 3 4 7 4 3 2 3 6 6 4 5 4 4 7 5 3
5 5 5 5 5 6 7 8 8 9 9 9 9 8 7 9 9 10 10 9 9 8 7 6 7 7 9 10 11 11 7 6 9 10 12 14 14 11 11 11 11 11 12 11 10 11 11 10 9 10 10 10 8 8 8 8 8 8 7 4 2 3 3 2 1 2 2 2 4 2 3 2 9 2 4 6 2 5 3 5 3 6 7 4 1
3 4 4 5 6 7 7 5 5 10 9 8 8 7 6 9 9 10 9 9 9 9 8 5 6 7 6 8 7 8 10 10 12 12 10 9 10 13 11 11 11 12 11 12 10 10 10 10 10 9 10 10 9 10 10 9 9 8 8 6 6 3 5 2 1 1 2 1 1 2 3 1 2 5 8 9 2 1 2 3 4 5 5 4 3
3 3 4 4 5 5 6 6 8 9 9 7 6 6 6 9 10 10 10 10 10 9 8 9 10 9 10 11 12 11 12 12 12 9 9 11 9 6 11 11 11 11 11 11 11 10 11 10 10 10 10 10 9 8 8 10 11 10 9 7 8 6 3 2 3 1 0 1 3 2 2 3 5 5 6 9 2 2 5 4 4 5 4 5 5
4 3 4 6 6 6 7 8 6 9 6 4 4 5 7 9 10 11 11 10 9 9 9 9 12 11 13 11 10 10 11 7 4 5 6 6 6 9 8 10 11 12 11 11 11 10 10 10 10 9 9 9 8 9 9 8 7 7 7 8 8 7 7 6 6 6 2 1 0 2 2 3 2 2 5 6 13 2 1 4 6 4 4 4 5
2 3 3 4 4 5 6 5 5 6 4 4 5 5 8 9 11 11 10 10 9 8 10 9 11 10 12 11 11 10 10 8 6 6 6 6 9 9 8 9 9 10 11 11 11 11 10 11 10 10 10 9 8 8 7 7 7 7 7 6 6 7 7 6 5 6 5 4 3 3 2 2 3 3 4 6 6 11 11 3 4 7 4 4 5
1 3 3 4 4 4 4 5 4 4 5 5 5 5 5 6 9 11 12 10 9 9 11 10 10 9 10 9 11 7 7 7 5 6 7 6 10 8 9 8 9 9 10 10 10 10 10 10 10 10 10 9 8 8 8 8 9 9 9 9 8 6 6 5 5 6 6 5 6 4 4 3 2 3 4 3 4 6 12 9 9 4 4 5 7
1 1 2 3 3 3 3 2 4 4 4 4 4 5 5 6 10 13 11 9 8 10 11 10 9 9 11 10 11 8 6 6 6 8 8 6 10 8 7 8 8 9 9 9 10 9 10 9 9 10 9 8 8 8 9 10 9 9 8 7 7 7 5 5 4 4 4 5 4 4 3 4 4 2 1 1 3 6 10 11 10 11 13 5 3
0 1 2 1 1 2 3 3 3 4 4 4 5 5 4 6 9 14 9 9 9 9 10 10 8 9 10 10 10 10 8 8 10 10 8 9 10 9 8 7 7 7 7 8 9 9 8 8 8 8 7 8 8 8 8 8 8 7 7 7 8 8 7 7 6 4 3 4 4 5 5 4 3 2 5 5 4 5 7 10 10 9 11 15 6
0 1 1 1 2 3 2 4 4 3 4 5 4 4 5 6 9 13 9 8 7 7 9 9 9 9 9 10 11 9 8 9 10 9 8 9 8 8 7 7 8 8 8 8 9 9 8 8 7 7 8 8 8 7 7 7 6 6 6 6 6 6 7 7 6 7 8 6 4 4 4 3 4 4 4 4 5 6 6 10 9 10 12 8 7
3 3 1 1 3 3 3 3 3 3 4 4 4 4 5 6 7 13 9 6 7 6 9 8 9 8 8 9 9 8 9 9 8 8 6 7 6 7 8 8 7 9 9 9 9 10 8 9 9 9 8 7 6 6 6 7 7 7 7 7 6 7 6 6 6 6 5 5 6 6 4 4 4 4 3 4 5 5 5 8 7 5 11 14 6
4 3 3 3 2 2 2 3 3 3 4 4 4 5 4 5 5 11 8 5 5 7 7 9 9 8 7 8 8 8 8 8 7 7 5 5 5 6 6 6 7 7 7 8 6 7 7 7 7 8 7 7 7 6 6 6 6 6 6 7 7 6 7 6 5 5 4 4 4 5 5 5 5 4 4 4 4 4 6 6 8 6 7 12 9
4 4 3 4 3 3 3 3 3 3 4 4 4 4 4 5 6 8 8 5 5 5 6 9 8 7 6 7 7 6 7 7 6 5 5 6 6 6 6 5 6 6 6 5 6 6 6 7 7 7 8 8 8 8 7 7 6 6 6 5 5 5 7 7 6 6 7 7 5 4 6 5 5 4 4 5 4 4 5 5 5 10 10 8 10
4 4 4 4 4 4 3 3 3 3 4 3 4 4 4 4 5 6 7 5 4 5 6 7 7 6 6 8 7 6 6 6 6 5 5 6 5 6 6 5 5 4 5 5 6 6 6 7 7 7 7 7 6 7 7 7 7 7 7 6 7 4 6 6 5 5 6 7 6 5 5 6 5 5 4 5 4 5 5 5 5 5 7 14 9
5 6 5 5 4 4 4 4 3 3 4 4 4 4 5 5 6 6 5 4 5 5 6 5 6 6 6 6 6 6 7 7 7 5 6 5 5 5 5 4 4 4 5 4 5 5 4 5 5 5 5 5 5 6 6 6 6 6 6 7 8 7 6 7 6 6 6 5 5 5 5 6 6 6 4 4 5 4 5 5 5 6 6 7 9
6 5 4 4 4 4 4 4 4 4 4 4 4 4 4 4 5 7 5 6 4 4 5 5 6 6 5 6 6 6 6 5 5 5 4 6 5 5 4 6 6 4 4 4 4 5 4 5 4 5 4 4 4 4 4 4 4 5 5 5 5 5 6 5 5 6 7 6 6 6 5 6 6 6 6 6 5 5 5 5 5 6 5 8 7
6 6 6 6 6 5 5 5 5 4 4 4 4 3 3 3 3 4 6 5 5 4 4 3 4 5 5 5 5 5 5 5 4 5 5 7 7 6 6 5 5 5 6 7 7 7 7 7 6 6 6 6 5 5 5 5 4 5 5 5 5 4 5 6 6 6 6 6 7 8 6 6 5 6 6 6 6 6 6 6 6 5 6 7 8
8 8 7 7 6 6 7 7 6 6 5 4 4 3 4 4 4 4 4 4 4 4 4 5 3 4 4 5 5 5 4 5 4 6 7 7 5 5 5 6 6 5 5 5 6 6 7 8 7 7 7 7 7 5 6 6 6 5 6 7 6 5 6 6 7 5 5 6 7 9 7 7 7 6 6 6 6 6 6 6 6 6 6 6 7
9 8 8 8 8 7 6 5 5 4 4 4 4 5 5 4 4 5 7 5 5 4 4 4 4 4 5 5 5 5 5 5 6 6 6 5 5 5 5 4 4 6 5 6 6 6 6 6 6 7 7 8 8 9 8 7 7 8 7 6 7 7 8 8 7 8 5 6 7 8 8 7 7 8 7 6 6 6 6 7 6 6 7 6 6
10 9 8 8 7 7 5 4 4 4 4 4 4 4 4 5 5 5 4 4 5 4 4 4 4 4 5 5 4 4 5 6 6 6 6 5 4 5 4 4 5 4 5 5 6 5 5 5 5 6 6 7 7 7 7 7 8 10 9 7 8 8 8 9 7 9 8 6 7 9 9 7 6 9 9 8 7 7 6 8 7 7 7 8 5
9 8 8 8 7 7 7 7 7 7 7 6 5 5 5 5 4 4 5 4 4 4 3 3 4 5 5 4 5 5 5 5 5 4 4 4 3 4 3 4 4 4 4 4 5 4 5 5 5 5 6 6 6 6 6 6 7 7 9 9 8 8 9 10 11 11 10 8 9 9 9 8 7 8 8 7 7 8 7 8 9 7 8 8 7
4 5 5 6 6 5 6 7 8 8 7 7 6 5 4 4 4 4 4 4 4 3 3 4 4 5 4 5 5 4 5 4 4 3 3 3 3 3 3 4 3 4 4 4 3 4 4 5 4 5 5 5 6 6 6 6 7 8 9 10 9 9 9 9 10 11 11 11 11 12 10 8 8 10 9 8 6 7 7 7 8 8 8 9 8
6 8 8 6 6 8 10 9 8 7 5 6 5 5 5 4 4 4 5 4 2 1 3 3 4 5 4 5 4 4 4 3 3 3 3 3 4 4 3 4 4 5 4 4 4 4 4 5 6 6 7 6 7 7 8 8 7 7 8 9 9 9 9 10 10 11 10 11 11 11 12 10 9 11 11 8 7 8 8 8 9 9 9 8 8
8 8 8 11 11 8 7 7 7 6 7 6 5 5 5 5 5 4 4 3 1 2 3 3 3 5 4 5 3 3 3 3 3 3 3 4 4 4 4 4 5 6 5 5 6 6 6 6 7 6 6 7 7 8 8 9 9 9 9 9 10 10 10 11 11 11 11 10 11 11 11 10 11 12 12 11 10 11 10 10 10 10 9 9 10
11 9 7 5 5 10 10 7 7 7 6 6 6 6 5 5 4 4 3 3 3 3 3 4 3 4 4 3 3 2 3 3 3 3 3 4 4 4 5 6 5 5 6 7 6 6 6 7 7 7 8 9 8 8 8 8 8 9 9 10 10 10 11 11 11 11 11 11 11 11 11 11 12 12 13 13 13 13 11 12 11 11 10 10 10
4 5 8 12 12 8 7 9 8 8 6 6 6 6 6 6 6 4 3 3 3 4 4 4 4 4 3 3 2 2 3 3 3 3 3 4 4 4 5 5 4 6 6 6 7 7 7 6 7 7 8 7 8 7 7 7 8 8 9 10 9 10 11 11 11 11 11 11 12 12 11 11 11 11 12 12 12 12 11 12 10 9 9 11 11
7 9 10 10 10 10 10 10 9 7 8 7 6 4 4 3 3 3 3 4 4 5 5 5 4 4 3 3 2 3 2 2 3 3 4 5 5 4 4 4 4 4 5 4 6 7 6 7 6 6 7 7 6 7 6 7 9 10 9 10 11 10 11 12 12 11 10 10 10 10 10 10 12 18 23 21 20 19 14 13 12 10 10 10 12
10 11 11 11 10 9 10 10 8 9 9 7 6 6 6 6 4 3 3 3 6 5 7 5 4 4 3 3 3 3 3 2 3 4 4 3 3 4 4 4 4 4 4 4 5 5 5 6 7 7 6 6 6 5 9 17 15 12 13 11 12 12 12 13 13 14 13 12 12 12 12 19 21 21 20 21 21 22 23 18 15 14 13 13 12
7 8 8 8 8 9 8 9 10 10 10 9 8 7 6 5 5 5 5 5 5 6 5 6 5 4 4 3 3 3 3 3 3 3 2 3 4 3 3 3 3 3 4 4 5 5 5 6 6 7 7 6 6 6 16 17 18 20 14 13 12 12 12 13 12 13 13 14 13 13 12 15 16 17 15 20 21 22 21 22 23 23 20 16 13
8 9 7 7 9 10 10 12 12 10 9 8 8 7 6 6 6 7 6 5 5 5 6 5 5 4 3 4 3 3 3 3 3 3 3 3 3 3 3 4 3 4 4 3 5 5 6 6 6 6 7 7 6 11 17 18 19 19 17 13 11 11 11 11 12 12 12 12 13 13 12 11 12 13 14 14 16 21 23 24 24 23 22 23 22
8 8 9 10 11 12 13 12 9 10 10 10 8 8 8 8 8 6 6 5 5 5 5 5 4 4 3 3 3 3 2 3 3 3 2 3 3 3 4 4 4 3 3 4 5 6 6 6 7 8 8 7 7 13 18 20 20 20 20 17 11 11 11 11 11 12 12 12 12 12 12 11 10 18 14 11 12 13 18 23 23 23 22 23 22
8 7 8 9 8 8 9 10 10 9 9 6 7 8 7 6 7 6 7 5 6 4 5 5 4 3 3 3 3 3 2 1 1 1 1 2 3 3 3 2 3 3 4 4 4 5 5 6 7 8 8 8 7 13 19 20 20 21 20 18 11 10 10 11 12 12 12 12 13 12 13 12 12 13 13 14 14 13 13 13 12 12 12 15 19
8 7 7 8 10 9 6 5 7 7 6 7 5 5 7 6 7 7 5 7 5 6 5 5 5 4 3 2 3 2 1 1 1 1 1 2 3 3 3 3 3 4 5 5 5 5 5 5 7 7 8 9 8 17 19 21 20 21 21 18 10 10 10 10 11 12 12 13 13 13 13 14 13 13 12 16 16 16 14 12 12 13 14 14 15
9 11 11 9 10 11 12 12 6 6 6 7 8 7 9 8 5 7 6 5 6 5 6 5 5 4 3 3 2 1 1 1 1 1 2 3 3 3 4 4 3 3 3 3 4 3 6 7 7 7 8 10 9 17 20 20 21 20 22 11 9 10 10 10 11 12 12 12 13 13 13 14 14 14 18 25 22 18 15 15 14 14 13 13 13
9 9 10 10 10 9 8 5 6 7 8 8 7 8 8 8 7 5 5 5 5 5 5 5 4 4 3 2 2 1 1 1 1 2 3 3 3 4 3 3 4 4 4 4 4 5 5 7 8 7 9 10 9 14 19 20 20 22 17 8 9 7 10 12 12 12 13 13 12 13 14 15 16 16 22 27 26 26 17 15 15 14 12 11 10
6 3 3 4 4 3 3 7 8 6 6 6 8 9 9 8 7 6 5 6 4 5 5 5 5 4 3 2 2 1 1 1 1 2 2 2 2 2 3 2 4 5 6 5 5 6 5 6 7 8 7 10 10 13 20 20 21 21 18 11 8 7 7 9 12 11 11 11 13 24 22 17 17 16 24 27 28 23 16 13 12 13 13 12 11
6 8 8 7 6 6 6 5 6 8 7 7 8 9 9 8 7 7 5 5 5 5 6 6 5 4 3 3 1 1 0 0 1 2 2 3 3 4 3 3 4 4 5 5 5 7 7 6 6 8 12 13 11 12 18 19 21 20 16 10 8 8 7 9 10 11 10 10 11 14 23 22 21 23 30 29 30 24 15 12 12 12 13 12 11
5 5 4 4 7 7 5 6 9 10 8 9 8 8 7 8 7 6 6 6 7 7 5 4 4 4 3 2 1 0 0 1 2 2 2 3 3 3 4 4 4 4 5 5 6 6 8 8 7 8 8 8 11 10 11 21 20 21 21 13 8 7 8 11 10 11 11 10 10 9 13 23 28 29 29 31 29 30 20 14 11 12 12 15 11
6 6 5 7 8 10 12 13 9 9 10 9 8 8 8 6 7 6 8 8 5 5 5 5 4 4 3 2 1 1 1 1 1 2 2 3 3 4 4 4 5 5 4 6 7 7 8 9 7 7 8 8 8 11 11 19 20 21 22 19 9 9 11 11 11 11 10 11 7 9 11 19 29 30 30 31 31 30 28 18 13 11 12 16 19
2 6 6 5 6 6 4 3 5 10 9 9 9 9 7 7 6 9 8 4 6 6 6 4 4 3 2 1 1 1 1 2 2 1 3 4 3 3 3 4 4 4 6 7 6 7 8 9 7 7 7 9 10 14 12 16 20 21 21 23 13 10 13 12 12 9 10 10 11 11 10 19 29 30 30 32 33 31 32 19 16 24 28 28 19
4 4 6 8 7 8 10 9 7 9 9 9 9 9 8 7 10 10 5 6 6 6 6 4 4 3 2 1 1 1 2 1 2 3 3 4 4 3 4 4 5 5 6 7 7 7 8 9 8 6 6 8 9 9 16 14 18 21 22 21 23 19 24 15 12 12 12 11 9 10 13 25 30 31 31 31 31 33 27 16 25 26 26 29 23
5 4 6 8 9 9 8 5 7 8 9 9 12 12 9 10 12 4 6 5 6 5 5 4 4 3 2 1 1 2 2 2 3 3 2 4 4 4 4 4 4 5 6 7 6 6 7 8 9 9 7 7 8 8 11 17 17 22 22 23 24 25 25 16 14 11 11 11 12 12 15 28 30 31 31 29 29 26 18 25 26 27 26 23 13
10 10 8 9 12 12 10 7 7 8 8 9 8 12 10 12 5 7 7 8 6 6 5 4 4 3 2 2 2 3 3 3 3 2 3 4 4 3 4 3 4 4 5 6 7 5 6 8 8 9 9 8 8 8 8 12 20 21 23 24 25 26 26 26 17 11 11 11 20 30 32 30 30 30 31 30 23 22 26 26 26 26 24 11 10
4 2 6 10 7 4 6 9 7 7 8 7 8 9 14 9 6 7 7 7 7 6 5 5 4 3 3 2 3 3 3 3 4 3 4 4 4 4 4 5 4 5 5 6 7 6 6 7 8 8 8 9 9 9 9 9 10 14 17 22 26 25 25 25 24 20 27 31 29 29 30 27 24 21 16 11 10 12 22 26 26 24 12 11 10
9 12 8 7 7 8 10 10 12 9 9 8 8 6 5 6 8 8 8 7 7 6 5 4 4 4 3 3 3 3 3 3 3 3 4 4 4 3 4 5 5 6 6 5 6 6 7 6 6 8 9 9 9 8 8 9 10 11 10 11 12 12 19 21 14 12 14 13 17 18 17 24 21 24 22 19 18 18 14 11 10 9 9 10 10
10 6 6 6 7 11 12 11 13 12 10 9 8 8 6 7 7 8 8 8 7 6 6 5 4 4 3 3 4 4 4 4 4 3 4 4 4 4 4 6 6 6 5 6 5 7 7 6 8 9 8 8 8 7 8 9 10 9 10 10 10 10 10 10 11 12 13 14 14 15 18 12 10 9 9 7 6 7 9 9 9 9 10 11 13
5 5 7 10 10 11 13 13 13 8 9 9 9 7 7 9 9 8 9 8 7 5 5 4 3 3 4 3 4 4 4 4 4 4 5 5 5 4 6 7 8 7 7 8 7 8 9 10 9 7 6 6 7 8 8 14 15 19 17 13 11 10 10 10 16 24 17 12 10 10 9 8 9 10 10 8 8 7 8 9 10 10 9 10 9
7 6 9 10 10 12 11 11 7 6 9 9 9 8 8 7 8 8 9 9 8 6 5 5 4 4 4 4 4 4 4 5 4 5 5 5 8 12 9 7 7 12 18 19 16 9 9 8 7 6 5 7 7 9 18 22 21 21 21 22 21 22 22 18 20 24 15 10 9 9 9 9 9 8 11 10 10 10 9 10 10 13 12 11 10
6 6 7 10 12 10 9 9 9 9 10 10 9 10 10 9 9 9 9 9 8 7 6 5 6 6 6 5 5 5 4 5 5 4 4 5 6 7 10 13 15 14 15 16 16 19 19 17 10 6 7 16 18 19 20 20 21 20 20 21 21 21 21 20 21 15 10 9 9 9 10 10 10 9 9 9 10 11 10 10 9 10 10 10 12
Wind_Direction
343 1 10 4 3 5 4 9 14 36 31 23 33 32 33 30 40 37 20 29 43 43 42 44 53 64 59 58 65 47 48 51 47 36 36 30 29 33 39 38 34 33 28 29 28 31 31 28 31 25 26 39 49 58 51 50 44 56 80 81 77 41 358 45 20 33 357 314 322 313 317 265 261 260 254 262 251 246 232 239 253 261 259 260 256
16 18 8 10 9 7 10 10 23 36 16 20 30 28 36 39 46 37 28 36 36 37 54 58 48 56 83 73 72 56 44 42 43 35 34 34 35 32 30 24 31 30 27 31 33 30 28 30 27 22 17 30 42 45 45 43 42 40 34 48 26 74 8 21 346 17 8 17 332 324 320 316 309 260 259 259 278 274 245 242 250 242 260 256 291
22 13 11 10 6 9 15 8 33 37 23 16 6 33 39 45 44 43 37 39 34 30 48 60 59 55 71 67 67 74 59 63 61 47 41 43 41 35 30 30 32 36 32 34 37 33 35 36 28 21 28 20 27 33 31 33 27 45 48 52 7 8 67 28 69 70 290 287 236 311 326 348 327 338 335 296 271 260 252 256 269 280 260 256 242
26 9 4 2 14 18 21 22 29 42 31 14 7 23 41 49 51 51 48 44 40 30 47 55 70 81 78 81 73 69 67 55 60 48 42 41 38 34 36 35 34 35 30 33 39 37 34 35 30 29 25 20 24 33 34 35 25 25 30 47 71 6 360 360 103 141 140 12 344 17 287 26 317 335 319 291 296 271 270 263 259 256 258 271 276
16 7 6 12 25 27 24 12 28 53 39 21 5 9 41 51 57 60 57 54 50 42 41 51 72 67 73 83 87 83 54 47 45 38 36 41 44 36 30 30 35 39 35 34 36 36 35 34 37 34 34 24 22 28 27 23 24 26 22 25 28 20 356 360 356 161 190 132 148 343 337 338 239 295 333 300 343 1 293 264 271 271 282 284 262
19 356 355 2 21 21 28 19 39 52 43 17 359 356 36 53 57 60 58 51 46 44 46 60 60 66 62 55 50 53 53 41 42 36 32 37 40 34 38 34 34 39 36 37 37 36 35 32 35 38 37 32 28 29 25 20 19 18 12 17 22 18 5 7 345 344 191 202 179 189 181 267 310 312 348 302 348 235 285 318 278 269 265 267 259
4 11 8 24 11 30 29 27 22 52 38 14 12 11 35 53 59 59 58 54 45 44 43 61 68 65 70 75 76 71 79 59 56 47 54 45 48 44 39 36 35 38 35 34 34 34 37 34 33 37 40 37 28 33 30 23 15 18 5 20 15 9 18 29 7 348 344 350 140 248 251 227 186 301 282 318 311 312 99 316 303 287 263 256 265
352 357 11 13 17 21 36 13 18 33 26 33 43 26 41 50 61 63 61 59 48 51 57 53 74 73 76 76 72 70 70 78 51 51 49 48 51 43 39 39 37 39 37 34 32 32 33 34 31 32 36 32 31 33 28 12 16 19 26 22 25 25 17 21 358 5 21 321 350 329 277 259 222 225 228 243 273 301 301 264 244 273 290 270 255
4 13 15 14 12 12 12 29 5 26 29 45 47 41 40 52 67 69 64 61 53 55 65 60 70 76 81 82 80 69 76 73 71 59 54 42 54 39 40 35 36 35 38 35 32 31 33 32 30 32 31 27 26 25 21 19 21 17 14 18 21 23 27 7 18 3 359 347 344 343 348 329 303 224 230 198 251 294 293 307 306 303 282 254 261
5 4 9 10 360 359 357 16 29 21 26 41 46 54 52 57 68 71 66 64 62 63 68 67 68 77 79 78 84 77 69 69 64 56 49 41 53 43 37 36 30 31 30 33 33 30 32 31 32 32 30 25 25 22 17 18 15 15 13 12 12 21 18 24 25 357 357 337 347 326 349 336 341 347 40 337 275 218 273 299 305 310 307 285 223
47 8 5 14 344 7 6 42 41 38 35 47 53 55 59 65 74 71 65 66 62 67 72 74 72 72 79 79 81 80 69 65 59 48 41 41 43 37 35 31 32 33 26 28 31 27 30 32 32 29 29 26 24 22 20 14 8 6 4 10 18 18 8 2 5 14 5 357 354 0 346 347 322 308 300 309 298 299 300 291 303 301 295 303 280
202 95 67 34 47 34 42 72 53 47 51 58 62 62 71 72 79 81 65 65 67 72 77 77 80 77 79 81 81 78 76 72 67 61 48 51 44 39 27 31 26 24 24 23 22 18 22 25 28 28 28 22 22 14 14 14 5 4 7 9 7 9 10 8 2 0 357 351 349 351 335 324 314 293 299 304 300 293 290 293 299 308 293 267 299
174 176 174 127 125 122 96 85 81 69 82 82 75 78 75 76 81 89 74 67 71 76 81 82 81 78 81 82 82 79 76 75 71 70 54 56 47 44 35 34 21 24 18 18 12 12 13 15 16 17 16 18 15 15 10 10 8 7 8 5 4 8 5 358 360 351 346 345 332 328 321 315 288 285 297 291 297 293 291 293 286 284 289 301 292
189 183 182 180 178 164 162 143 128 120 96 86 84 82 83 85 82 90 88 74 79 77 81 83 77 77 75 79 77 77 76 75 73 74 65 63 55 52 46 36 31 29 16 18 2 1 13 14 12 13 13 9 11 9 9 7 8 9 4 6 359 350 355 355 347 339 336 329 324 322 326 314 303 302 290 296 283 304 296 286 299 293 283 289 298
193 187 190 187 202 210 191 165 158 140 121 104 97 98 97 95 93 98 97 82 86 92 91 88 86 81 81 82 83 81 83 78 75 73 63 56 46 50 44 35 35 18 18 359 1 8 5 10 11 10 7 5 3 4 2 1 3 1 5 0 353 350 351 346 344 347 341 338 338 329 314 311 299 298 302 287 283 268 262 274 292 304 302 284 294
191 186 195 214 214 206 203 199 186 158 139 131 123 128 115 116 108 105 112 120 108 99 92 96 93 91 84 83 81 83 82 81 73 63 57 60 51 52 38 36 27 15 4 8 359 6 2 3 6 6 1 2 2 0 357 358 356 357 352 354 352 347 348 343 334 338 331 331 329 323 320 309 309 303 291 281 275 271 269 271 264 261 277 301 304
193 194 194 198 207 217 206 197 184 172 155 154 160 158 144 136 124 114 110 102 100 101 102 96 100 95 87 87 85 81 79 75 74 65 62 52 57 46 46 26 21 16 7 5 358 355 356 351 355 355 353 353 356 352 353 350 350 351 345 345 344 342 344 336 331 331 320 318 320 322 315 306 306 308 302 283 274 271 263 259 246 249 248 266 299
197 201 197 197 201 200 206 208 200 183 170 164 163 166 148 136 128 122 120 115 119 113 108 111 107 97 94 88 77 78 81 78 72 70 63 62 49 48 41 33 23 7 13 3 6 5 7 1 2 354 348 345 344 338 340 341 338 342 333 330 319 322 325 321 323 320 319 317 312 312 311 307 304 311 303 303 295 279 274 262 254 250 233 244 258
196 202 197 196 199 202 198 201 202 199 188 177 164 154 142 137 142 133 134 138 138 129 121 108 100 95 95 94 97 82 73 72 64 61 56 51 41 34 33 23 11 10 11 7 7 8 6 5 5 359 360 360 356 351 347 343 337 331 324 319 315 319 321 319 316 319 314 317 314 312 310 303 303 301 302 303 300 294 282 274 265 251 245 238 253
199 199 196 193 197 200 197 193 192 194 188 186 169 155 159 158 139 130 120 118 110 116 117 108 118 119 109 90 71 77 68 69 62 57 51 49 40 35 26 23 14 6 15 6 11 5 1 358 358 354 352 353 352 353 351 347 344 341 334 331 322 320 314 309 307 300 303 306 304 305 306 307 307 301 299 295 293 294 290 285 276 266 259 247 247
201 194 190 191 195 199 199 199 199 197 190 174 168 169 168 161 153 156 138 137 121 137 120 126 118 102 92 84 75 67 59 56 55 49 52 43 36 33 31 18 5 15 9 5 8 360 356 353 348 349 349 347 349 346 349 345 343 338 337 330 327 329 323 318 314 310 304 299 298 294 299 300 299 298 295 296 294 290 290 284 278 274 271 258 248
200 193 185 187 193 195 197 197 195 180 193 191 196 167 161 157 154 147 128 128 127 124 123 130 116 105 89 84 77 69 63 51 52 43 40 37 26 27 23 16 26 2 11 1 0 353 351 346 349 343 345 344 341 342 337 342 336 334 331 332 328 324 317 311 311 308 311 309 303 302 298 296 290 285 291 294 294 295 293 291 284 276 271 275 247
193 183 187 190 190 189 190 189 190 193 194 190 184 180 171 161 152 138 128 154 151 158 148 131 98 82 73 76 71 57 56 50 51 43 37 33 26 25 28 28 24 7 6 4 351 352 346 345 346 343 342 341 340 336 337 333 329 325 321 319 319 318 316 317 317 313 312 309 304 299 298 301 299 292 289 288 290 288 284 282 284 278 276 274 268
162 179 188 191 185 186 187 195 196 198 193 188 190 186 180 171 160 145 159 184 198 176 124 86 84 77 79 74 66 57 60 56 52 46 39 31 32 31 28 31 31 8 7 355 355 353 349 347 345 343 342 339 337 337 335 333 325 324 318 315 315 313 309 308 305 307 312 314 309 308 304 306 301 294 293 293 287 279 278 280 279 281 275 277 272
182 190 191 186 187 194 201 195 192 193 193 192 190 188 180 188 174 179 201 206 194 102 90 86 98 91 75 78 65 61 65 53 50 43 36 36 36 31 26 24 21 10 6 359 1 360 353 353 353 346 344 345 343 340 337 332 328 321 316 314 315 313 311 307 304 302 302 302 301 300 305 310 308 302 300 296 293 288 285 282 281 280 278 277 275
195 192 181 192 198 200 199 199 191 194 195 193 193 189 188 189 199 194 194 192 185 103 108 106 110 100 88 78 69 61 58 51 48 39 39 36 34 29 23 22 19 4 4 6 1 1 356 353 349 346 344 343 342 338 334 329 324 324 321 318 315 313 310 308 306 304 303 304 301 301 301 305 305 303 302 302 299 294 292 285 283 281 279 276 276
199 191 185 178 196 206 204 193 196 198 196 190 186 192 193 190 186 190 185 170 164 140 133 119 110 110 101 97 82 68 67 55 51 44 44 38 32 26 23 21 13 7 5 1 359 357 355 351 344 347 345 341 337 334 330 324 323 323 317 313 312 310 308 308 305 306 307 305 303 302 301 301 298 296 296 298 301 296 290 284 280 282 277 275 274
170 170 183 198 206 200 194 200 201 204 196 193 193 191 189 183 190 189 175 164 156 141 137 126 125 115 116 122 100 100 75 64 58 54 51 40 30 27 24 15 14 10 10 360 358 353 347 347 343 344 336 335 331 329 324 321 317 315 312 310 310 308 306 304 301 299 298 296 297 297 295 293 291 287 287 288 287 287 288 287 286 284 285 284 282
189 201 202 205 203 197 197 200 203 196 193 195 187 180 172 175 172 165 158 176 154 134 134 136 129 129 134 130 118 94 84 78 65 57 49 31 28 25 20 16 17 12 5 357 356 348 338 342 338 333 330 329 328 322 324 319 317 315 314 310 309 307 305 303 302 302 301 298 294 291 290 291 294 297 296 295 292 291 292 292 289 290 291 288 285
205 207 207 208 205 197 199 198 197 197 196 188 184 189 186 178 177 162 146 149 137 144 142 143 138 136 131 120 110 93 76 70 55 47 42 27 30 22 17 17 17 9 356 356 349 340 341 334 330 323 325 323 316 316 308 311 313 313 313 312 309 306 307 307 307 308 307 307 306 306 303 303 302 300 298 295 292 289 285 283 285 285 282 278 275
217 219 217 211 205 204 199 197 201 199 195 187 189 190 179 172 164 158 158 163 147 145 143 143 139 136 119 105 93 77 69 62 52 47 33 26 24 14 17 17 13 4 356 355 340 337 341 326 320 319 318 316 309 303 308 313 313 313 311 308 306 306 305 306 305 305 306 307 307 307 307 308 307 304 303 302 301 299 298 295 291 287 284 284 290
220 221 213 207 205 203 202 204 203 197 190 188 187 182 168 177 165 167 164 151 142 141 139 133 128 118 106 96 93 84 70 56 46 30 24 17 14 8 11 8 358 359 353 345 341 336 326 320 314 312 309 310 304 306 312 313 313 312 312 309 307 305 304 303 303 303 303 304 305 305 303 301 299 299 299 301 300 297 294 291 288 287 286 284 281
228 221 213 209 205 204 205 206 197 193 191 196 178 165 183 172 169 169 143 144 140 135 128 122 119 112 107 104 97 84 73 53 42 26 17 8 13 3 6 358 356 343 335 342 332 327 318 317 313 312 312 309 300 309 312 313 313 314 313 312 304 303 302 304 305 304 302 302 302 299 298 295 295 297 296 291 288 287 287 288 288 289 289 288 287
234 228 219 217 212 213 211 203 196 195 194 176 171 176 175 160 151 142 149 147 135 128 126 130 124 121 121 114 99 88 73 62 47 26 16 8 10 3 345 334 335 339 342 328 320 317 314 312 313 311 308 308 299 309 313 313 314 313 312 312 306 309 308 304 301 299 298 297 297 297 298 297 297 297 295 293 291 289 288 290 292 290 285 284 286
227 225 222 215 210 207 200 195 204 192 166 146 165 152 137 138 148 147 150 140 137 135 135 142 138 133 125 115 108 104 94 82 38 31 15 5 360 343 347 346 350 336 331 323 321 316 309 308 308 308 305 304 301 310 313 313 313 312 312 314 313 310 302 298 296 297 297 297 295 295 294 293 295 294 292 290 290 290 290 285 283 282 282 285 285
217 209 216 205 199 197 195 203 176 147 166 172 168 153 148 152 142 146 147 144 142 140 147 145 143 143 140 135 126 117 98 71 33 16 17 353 349 342 335 333 331 315 294 297 294 295 302 305 304 304 303 301 302 310 312 312 311 312 314 314 308 300 301 299 298 297 296 295 294 293 293 292 291 291 290 291 291 289 286 282 276 272 270 266 261
223 206 212 205 200 197 197 157 157 170 164 175 152 150 144 142 146 152 145 147 142 151 166 162 152 152 144 134 116 103 69 32 24 10 355 341 335 328 326 322 319 306 307 303 296 298 298 300 302 300 300 297 297 308 309 309 311 312 314 297 298 295 297 295 291 295 294 292 291 289 287 289 288 286 286 289 290 291 285 276 272 272 268 264 261
224 219 227 194 192 164 152 166 163 165 163 143 148 149 147 148 154 155 149 155 158 180 173 165 162 155 140 121 109 100 61 15 11 346 322 310 307 301 298 304 305 308 305 296 300 299 291 292 294 294 292 295 295 302 306 308 309 309 309 306 297 275 259 281 293 288 292 288 281 285 285 287 285 280 283 286 288 290 285 281 275 272 270 264 262
205 194 196 191 180 165 155 135 147 160 162 150 150 149 148 159 161 163 160 166 190 184 178 176 167 150 127 123 118 113 103 345 317 299 300 302 302 294 290 293 280 283 286 297 298 296 294 287 281 284 292 294 291 296 301 303 306 306 307 297 293 288 274 280 290 288 276 271 263 270 277 284 288 287 289 292 293 293 287 280 276 271 271 265 264
211 224 210 168 139 119 134 154 178 185 153 154 152 153 159 162 169 159 172 194 200 191 176 149 138 132 127 123 125 129 180 250 274 290 293 281 285 294 287 293 292 285 292 296 292 289 291 289 287 285 284 283 289 288 292 300 304 306 306 303 293 287 280 281 270 273 280 266 254 247 265 282 289 290 291 292 291 288 284 277 271 270 268 273 268
204 208 163 154 175 175 180 190 187 157 155 157 156 152 171 170 163 171 204 204 182 153 148 148 136 130 127 132 134 156 234 267 250 264 276 284 281 285 295 296 295 297 293 294 291 289 287 287 285 282 282 281 276 286 288 296 301 304 306 307 291 283 282 281 278 273 270 275 253 255 265 280 290 292 291 290 288 285 284 279 273 265 262 265 271
196 172 168 174 179 195 176 142 153 158 161 163 161 169 172 167 168 205 207 154 150 151 145 142 142 139 140 139 174 247 236 242 268 267 279 275 265 268 279 287 288 293 295 289 291 290 289 289 286 282 280 282 281 282 287 293 298 302 306 308 304 287 292 291 291 285 283 276 274 278 275 288 292 290 290 288 287 287 284 283 281 282 285 289 292
165 177 197 172 179 193 202 192 164 164 165 171 165 173 178 174 199 211 154 152 151 149 149 147 142 146 152 179 208 235 264 248 258 254 257 276 281 286 283 283 288 289 284 288 287 289 292 293 294 286 280 281 283 280 287 290 295 304 308 308 306 306 306 304 295 286 281 281 276 275 275 288 291 288 284 284 286 287 292 294 293 297 299 299 301
223 218 193 179 194 199 198 177 172 173 175 174 174 178 183 188 214 144 145 143 148 148 145 144 150 161 164 198 236 254 249 249 252 263 266 273 283 278 281 274 277 278 284 287 285 286 292 294 302 303 294 285 282 281 281 294 304 310 313 313 311 309 307 302 296 291 293 286 283 277 279 285 288 293 297 301 302 307 305 301 302 300 300 300 295
205 209 191 188 195 196 190 183 185 182 185 185 187 182 178 201 188 141 156 156 153 147 147 160 171 178 188 225 254 247 251 255 253 234 256 265 275 266 280 267 266 277 274 281 282 281 283 291 295 296 300 297 291 288 291 296 310 315 315 313 311 310 310 310 306 293 288 288 296 299 300 301 302 304 305 305 305 302 298 299 298 298 300 302 300
229 198 179 202 206 188 177 191 195 192 192 190 196 179 186 199 142 158 153 152 149 147 162 181 188 186 207 211 240 264 256 248 252 235 231 242 248 264 267 280 273 268 263 265 277 278 276 279 281 289 293 298 299 298 298 299 303 307 305 304 305 310 311 310 309 305 303 303 303 304 305 305 303 299 295 289 280 288 297 302 303 305 306 298 292
211 219 185 177 183 189 198 196 202 200 194 196 192 202 181 136 162 152 151 146 149 161 172 181 194 201 207 199 215 255 268 256 239 242 239 244 240 241 249 266 261 266 265 260 265 269 274 268 266 285 291 299 298 298 307 309 308 301 295 294 297 297 308 313 308 298 304 305 306 311 313 312 313 312 311 310 307 306 306 302 297 293 288 283 280
223 217 172 184 188 204 206 200 210 200 192 188 189 189 166 152 149 153 142 143 153 168 180 193 201 194 211 204 214 239 240 255 250 233 251 259 245 225 235 248 251 250 256 263 255 262 262 264 277 287 283 277 294 309 307 305 298 297 304 307 307 318 325 320 316 317 314 314 315 315 311 310 319 323 315 300 291 294 295 299 294 292 290 285 280
231 210 178 196 203 208 214 205 216 185 178 185 190 180 167 157 149 147 147 149 164 169 175 187 194 184 226 221 218 223 225 234 255 255 243 233 245 249 250 256 242 230 233 247 257 252 259 269 261 254 271 297 308 303 300 308 313 317 319 326 332 326 323 327 324 322 320 321 319 315 317 327 328 321 323 319 317 311 307 303 301 302 302 300 295
219 187 193 206 207 209 215 216 211 164 180 188 185 166 158 162 151 152 153 159 165 165 173 201 194 204 222 226 230 229 227 230 235 249 264 275 248 254 249 241 243 256 257 252 250 243 248 268 285 289 299 300 304 303 310 316 317 320 329 329 328 332 336 334 332 337 339 333 336 330 327 328 327 332 327 327 325 326 322 320 317 317 312 302 294
205 187 206 208 215 209 210 211 198 173 182 184 181 169 164 171 160 160 163 166 160 169 181 195 192 212 210 211 217 228 225 226 232 237 242 264 299 292 283 280 276 273 272 276 278 281 286 289 291 304 310 307 306 310 314 316 320 330 333 332 334 342 344 343 348 357 359 349 340 338 333 328 328 326 324 323 324 323 322 319 314 309 302 304 306